Other Public Products
Issued by NWS Grand Forks, ND

Home | Current Version | Previous Version | Graphics & Text | Print | Product List | Glossary On
Versions: 1 2 3 4 5 6 7 8 9 10 11 12 13 14 15 16 17 18 19 20 21 22 23 24 25 26 27 28 29 30 31 32 33 34 35 36 37 38 39 40 41 42 43 44 45 46 47 48 49 50
000
FPUS83 KFGF 271510
OPUFGF
PRAIRIE TO PINES WEATHER ROUNDUP
NATIONAL WEATHER SERVICE EASTERN NORTH DAKOTA/GRAND FORKS ND
1000 AM CDT FRI MAY 27 2016

 **SATELLITE DATA USED TO AUGMENT SKY COVER AT AUTOMATED STATIONS**
 *****  WEATHER ACROSS EASTERN NORTH DAKOTA  *****

CITY           SKY/WX    TMP DP  RH WIND       PRES   REMARKS
GRAND FORKS    PTSUNNY   64  54  69 VRB3      29.81R
GRAND FORKS AF SUNNY     62  55  77 VRB2      29.82S
GRAND CITY NWS   N/A     64 N/A N/A VRB5        N/A
BUXTON           N/A     63  59  85 NE6         N/A
DEVILS LAKE    MOSUNNY   60  52  74 NW7       29.82S
FARGO          PTSUNNY   67  58  72 N8        29.79R
WAHPETON ARPT  MOSUNNY   72  50  46 N7        29.78R
$$

 *****  WEATHER ACROSS CENTRAL AND WESTERN NORTH DAKOTA  *****

CITY           SKY/WX    TMP DP  RH WIND       PRES   REMARKS
JAMESTOWN      MOSUNNY   62  54  74 NE12      29.82R
BISMARCK       SUNNY     61  52  72 N9        29.84S
MINOT          CLOUDY    62  53  72 NW8       29.82F
MINOT AFB      CLOUDY    57  54  88 N10       29.82S
GARRISON         N/A     58  52  80 VRB3      29.84F
WILLISTON      PTSUNNY   63  50  62 NE3       29.87S
DICKINSON      SUNNY     60  47  61 N6        29.84S
HETTINGER      SUNNY     62  47  57 N8        29.86S
$$

 *****  OTHER OBSERVATIONS NORTHEAST NORTH DAKOTA  *****

CITY           SKY/WX    TMP DP  RH WIND       PRES   REMARKS
WALHALLA       FAIR      61  61 100 CALM      29.79S
LANGDON        CLOUDY    61  57  88 W7        29.81S
CAVALIER       FAIR      63  55  77 CALM      29.79S
GRAFTON        FAIR      64  57  77 VRB3      29.83R
CANDO          NOT AVBL
FORT TOTTEN      N/A     62  60  92 NW3       29.95
ROLLA          CLOUDY    55  55 100 N7        29.82S
RUGBY          CLOUDY    55  55 100 NW7       29.82S
 ***** THE ABOVE OBSERVATIONS ARE NON NWS ARE NOT QUALITY
        CONTROLLED AND MAY MIS-REPORT RAIN FOR SNOW...
$$

 *****  OTHER OBSERVATIONS SOUTHEAST NORTH DAKOTA *****

CITY           SKY/WX    TMP DP  RH WIND       PRES   REMARKS
COOPERSTOWN    NOT AVBL
VALLEY CITY    FAIR      63  63 100 NE9       29.84R
OAKES            N/A    N/A N/A N/A MISG        N/A
GWINNER        FAIR      68  55  64 NE8       29.79S
SHEYENNE NWR     N/A     66  58  74 NE3       29.95S
BUFFALO          N/A     62  56  82 NE8         N/A
WYNDMERE         N/A     70  57  64 VRB6        N/A
 ***** THE ABOVE OBSERVATIONS ARE NON NWS ARE NOT QUALITY
       CONTROLLED AND MAY MIS-REPORT RAIN FOR SNOW...
$$

  *****  WEATHER ACROSS NORTHERN MINNESOTA  *****

CITY           SKY/WX    TMP DP  RH WIND       PRES   REMARKS
FLAG ISLAND    SUNNY     61  55  82 S8        29.81R
WARROAD        SUNNY     61  57  88 SE3       29.83S
ROSEAU         SUNNY     61  55  82 S3        29.82S
HALLOCK        PTSUNNY   63  55  77 SE3       29.80S
THF RVR FALLS  PTSUNNY   63  54  72 CALM      29.83S
HALSTAD        NOT AVBL
FOSSTON        PTSUNNY   66  61  82 CALM      29.82R
BAUDETTE       MOSUNNY   63  55  75 E6        29.84R
WASKISH        MOSUNNY   70  55  60 E6        29.83S
CROOKSTON      MOSUNNY   64  55  72 CALM      29.81S
$$
  *****  WEATHER ACROSS CENTRAL AND WEST MINNESOTA  *****

CITY           SKY/WX    TMP DP  RH WIND       PRES   REMARKS
BEMIDJI        CLOUDY    64  53  66 E6        29.82S
PARK RAPIDS    CLOUDY    65  53  65 E10       29.81R
WADENA         PTSUNNY   61  52  72 NE6       29.79S
DETROIT LAKES  MOSUNNY   70  52  52 E3        29.81R
MOORHEAD       MOSUNNY   66  59  77 N6        29.80R
FERGUS FALLS   MOSUNNY   72  50  46 NE8       29.74S
ELBOW LAKE     CLOUDY    66  53  63 E9        29.78R
MORRIS MN      PTSUNNY   66  55  68 NE5       29.75F
STAPLES        CLOUDY    63  52  67 E5        29.80R
WHEATON        CLOUDY    73  55  53 NE12      29.78S
$$
  *****  WEATHER ELSEWHERE ACROSS MINNESOTA  *****

CITY           SKY/WX    TMP DP  RH WIND       PRES   REMARKS
DULUTH         CLOUDY    58  51  78 E8        29.88S
INTRNTL FALLS  SUNNY     67  53  61 NE3       29.85R
ELY            CLOUDY    66  54  63 E7        29.88S
CLOQUET        RAIN      55  50  82 SE3       29.88R
BRAINERD       LGT RAIN  63  56  78 VRB5      29.82R
HIBBING        CLOUDY    58  54  86 SE6       29.87R
ALEXANDRIA     CLOUDY    63  55  75 NE5       29.79R
SAINT CLOUD    LGT RAIN  67  57  70 SE12      29.80R
MINNEAPOLIS    LGT RAIN  66  58  75 SE14      29.83R
$$

  *****  WEATHER ACROSS SOUTH DAKOTA  *****

CITY           SKY/WX    TMP DP  RH WIND       PRES   REMARKS
SIOUX FALLS    LGT RAIN  63  58  83 SW5       29.79R
BROOKINGS      LGT RAIN  62  58  86 S9        29.79R
WATERTOWN      CLOUDY    67  52  58 NE12      29.76F
HURON          CLOUDY    64  59  83 MISG      29.76R
SISSETON         N/A     70  55  59 VRB5      29.77R
ABERDEEN       PTSUNNY   67  56  67 N9        29.78S
MITCHELL       LGT RAIN  62  60  93 S15       29.78S FOG
PIERRE         CLOUDY    61  51  70 N12       29.77R
MOBRIDGE       MOSUNNY   63  51  65 N15       29.78R
RAPID CITY     MOSUNNY   58  45  62 N10       29.85S
$$

  *****  SOME WEATHER IN NEARBY STATES *****

CITY           SKY/WX    TMP DP  RH WIND       PRES   REMARKS
GLASGOW MT     SUNNY     55  48  77 SE3       29.90F
GREAT FALLS MT MOSUNNY   57  45  64 SW9       29.88S
CHEYENNE WY    CLOUDY    50  37  61 N17G25    29.93R
SCOTTSBLUFF NE CLOUDY    56  44  64 N12       29.87R
OMAHA NE       PTSUNNY   68  60  75 NE8       29.76S
DES MOINES IA  LGT RAIN  64  61  90 E7        29.75F FOG
DAVENPORT IA   CLOUDY    70  65  84 S17       29.82F
CHICAGO IL     CLOUDY    70  66  87 S8        29.89F
EAU CLAIRE WI  CLOUDY    66  61  84 N7        29.82F
LA CROSSE WI   CLOUDY    68  63  84 NW6       29.81F
$$

  *****  SOME NATIONAL WEATHER *****

CITY           SKY/WX    TMP DP  RH WIND       PRES   REMARKS
LA GUARDIA NY  MOSUNNY   82  67  60 SE9       30.05F
RALEIGH NC     MOSUNNY   80  63  55 SW9       30.16S
ATLANTA GA     PTSUNNY   77  61  57 SE6       30.13S
NEW ORLEANS LA CLOUDY    82  68  62 SE13      29.99R
OKLAHOMA CITY  CLOUDY    71  62  73 S7        29.68R
ALBUQUERQUE NM CLOUDY    55  28  35 SW5       29.97S
SALT LAKE CITY PTSUNNY   60  41  49 SE7       29.98R
LOS ANGELES CA PTSUNNY   61  54  77 E6        29.96R
BOISE ID       MOSUNNY   52  36  54 NW14      30.02R
SEATTLE WA     PTSUNNY   50  43  77 S7        30.16R
$$

*** WEATHER ACROSS MANITOBA...SASKATCHEWAN AND ONTARIO ***
                ***ONTARIO***

CITY           SKY/WX    TMP DP  RH WIND       PRES   REMARKS
GERALDTON      PTSUNNY   63  55  77 E5        29.89R
THUNDER BAY    CLOUDY    52  52 100 NE3       29.92R FOG
SIOUX LOOKOUT  PTSUNNY   64  55  72 SW3       29.82S
TORONTO        PTSUNNY   79  68  69 S8        29.97R
BIG TROUT LK   CLOUDY    41  39  93 N9        29.98
PICKLE LAKE    PTSUNNY   61  57  88 NE3       29.84S
DRYDEN         MOSUNNY   63  54  72 W3        29.84R
KENORA         PTSUNNY   63  54  72 VRB2      29.82R
$$
                *** MANITOBA***

CITY           SKY/WX    TMP DP  RH WIND       PRES   REMARKS
BRANDON        LGT RAIN  57  55  94 NE8       29.84R
DAUPHIN        CLOUDY    52  48  87 N15G21    29.92R
ISLAND LAKE    CLOUDY    39  37  93 NE12G21   30.04R
PILOT MOUND      N/A     59  55  88 N8          N/A
THE PAS        CLOUDY    41  36  81 NE7       30.06S
THOMPSON       FLURRIES  34  30  86 NE15G22   30.17R WCI  24
WINNIPEG       CLOUDY    61  59  94 N9        29.79S
LYNN LAKE      CLOUDY    36  30  80 E15       30.16F
CHURCHILL      CLOUDY    30  27  86 NE16G22   30.33S WCI  19
GILLAM         CLOUDY    34  30  86 NE13G21   30.20R WCI  25
$$
                ***SASKATCHEWAN***

CITY           SKY/WX    TMP DP  RH WIND       PRES   REMARKS
ESTEVAN        CLOUDY    57  54  88 NW6       29.86S
KINDERSLEY     NOT AVBL
LLOYDMINSTER   MOSUNNY   64  50  59 SE13      29.84S
PRINCE ALBERT  MOSUNNY   55  46  71 E15G21    29.95R
REGINA         MOSUNNY   64  52  63 E7        29.89S
YORKTON        SUNNY     59  52  77 NE10      29.91S  C1F1C2F2C3F3C4F4C5F5C6F6C7F7C8F8C9F9CaFaCbFbCcFcCdFdCe!



USA.gov is the U.S. government's official web portal to all federal, state and local government web resources and services.